Location: Newark
(42.8481°N, 0.4872°E)
Time: 14:11:10
(UTC+00:00)

Vanguard 3 - Visible Passes

Search period start: 30 October 2020 00:00
Search period end: 09 November 2020 00:00
Orbit: 507 x 3263 km, 33.4° (Epoch: 29 October)

Date Brightness Start Highest point End Pass type
(mag) Time Alt. Az. Time Alt. Az. Time Alt. Az.
30 Oct 10.8 02:22:57 15° SSE 02:30:27 22° SE 02:42:55 10° E visible
30 Oct 10.6 04:28:11 10° SW 04:43:30 48° SSE 05:01:51 10° E visible
31 Oct 11.1 01:13:40 10° SE 01:16:14 11° SE 01:18:57 10° ESE visible
31 Oct 10.5 03:18:08 19° SSW 03:27:45 36° SE 03:44:23 10° E visible
31 Oct 10.5 05:25:30 10° WSW 05:42:14 59° SSE 06:01:11 10° E visible
01 Nov 10.6 02:08:39 21° SSE 02:12:52 24° SE 02:25:39 10° E visible
01 Nov 10.4 04:13:14 17° SW 04:25:47 50° SSE 04:44:25 10° E visible
02 Nov 11.1 00:59:05 12° ESE 00:59:05 12° ESE 01:03:32 10° ESE visible
02 Nov 10.2 03:03:40 28° S 03:10:07 38° SE 03:26:50 10° E visible
02 Nov 10.4 05:08:34 10° WSW 05:24:32 60° SSE 05:43:50 10° E visible
03 Nov 10.5 01:54:03 25° SE 01:55:21 25° SE 02:08:13 10° E visible
03 Nov 10.2 03:58:37 25° SW 04:08:10 52° SSE 04:26:51 10° E visible
03 Nov 10.5 06:06:37 10° WSW 06:23:43 63° S 06:42:50 10° ESE visible
04 Nov 11.1 00:44:22 12° ESE 00:44:22 12° ESE 00:47:07 10° ESE visible
04 Nov 10.0 02:48:56 36° S 02:52:36 40° SSE 03:09:10 10° E visible
04 Nov 10.2 04:53:30 16° WSW 05:06:54 61° S 05:26:21 10° E visible
05 Nov 10.5 01:39:12 27° SE 01:39:12 27° SE 01:50:40 10° E visible
05 Nov 9.9 03:43:46 34° SW 03:50:39 53° SSE 04:09:11 10° E visible
05 Nov 10.4 05:49:48 10° WSW 06:06:02 63° S 06:25:25 10° ESE visible
06 Nov 11.1 00:29:25 11° ESE 00:29:25 11° ESE 00:30:17 10° ESE visible
06 Nov 9.9 02:33:59 41° SSE 02:35:13 42° SSE 02:51:25 10° E visible
06 Nov 10.1 04:38:33 23° WSW 04:49:20 61° S 05:08:45 10° E visible
07 Nov 10.5 01:24:10 25° ESE 01:24:10 25° ESE 01:33:03 10° E visible
07 Nov 9.6 03:28:44 43° SSW 03:33:14 54° SSE 03:51:25 10° E visible
07 Nov 10.3 05:33:17 11° W 05:48:24 61° S 06:07:53 10° ESE visible
08 Nov 9.9 02:18:53 43° SE 02:18:53 43° SE 02:33:37 10° E visible
08 Nov 9.9 04:23:27 30° WSW 04:31:53 61° S 04:51:02 10° ESE visible
